Effective Sunday, March 17, 2024, the National Weather Service National Data Buoy Center will discontinue its Dial-A-Buoy Interactive Voice Response system. For more information, see Service Change Notice 24-06 (PDF).

Station GNJT2 - 8771341 - Galveston Bay Entrance (North Jetty), TX Image indicating link to RSS feed of recent meteorological observations for station GNJT2


Conditions at GNJT2 as of
(5:48 am CST)
1148 GMT on 02/25/2024:
     

Click on the graph icon in the table below to see a time series plot of the last five days of that observation.

5-day plot - Wind Direction Wind Direction (WDIR): SW ( 230 deg true )
5-day plot - Wind Speed Wind Speed (WSPD): 8.0 kts
5-day plot - Wind Gust Wind Gust (GST): 8.9 kts
5-day plot - Atmospheric Pressure Atmospheric Pressure (PRES):30.08 in
5-day plot - Air Temperature Air Temperature (ATMP): 63.9 °F
5-day plot - Water Temperature Water Temperature (WTMP): 61.2 °F
5-day plot - Wind Speed at 10 Meters Wind Speed at 10 meters (WSPD10M): 7.8 kts
5-day plot - Wind Speed at 20 Meters Wind Speed at 20 meters (WSPD20M): 9.7 kts
5-day plot -  Wind Speed, Wind Gust and Atmospheric Pressure Combined plot of Wind Speed, Gust, and Air Pressure
NOS Water Level Observation Network Water Level
Previous observations
TIME
(CST)
5-day plot - Wind Direction
WDIR
 
5-day plot - Wind Speed
WSPD
kts
5-day plot - Wind Gust
GST
kts
5-day plot - Wave Height
WVHT
ft
5-day plot - Dominant Wave Period
DPD
sec
5-day plot - Average Wave Period
APD
sec
5-day plot - Mean Wave Direction
MWD
 
5-day plot - Atmospheric Pressure
PRES
in
5-day plot - Pressure Tendency
PTDY
in
5-day plot - Air Temperature
ATMP
°F
5-day plot - Water Temperature
WTMP
°F
5-day plot - Dew Point
DEWP
°F
5-day plot - Salinity
SAL
psu
5-day plot - Visibility
VIS
nmi
5-day plot - Tide (above MLLW)
TIDE
ft
2024-02-25 05:42 am SW 6.0 8.9----30.08- 63.0 61.2----
2024-02-25 05:36 am SW 7.0 8.9----30.08- 63.1 61.2----
2024-02-25 05:30 am SW 8.9 9.9----30.08-- 61.2----
2024-02-25 05:24 am SW 8.0 9.9----30.07-- 61.2----
2024-02-25 05:18 am SW 8.0 12.0------------
2024-02-25 05:12 am SW 9.9 11.1------------
2024-02-25 05:06 am SW 7.0 8.0------------
2024-02-25 05:00 am SW 6.0 8.0------------
2024-02-25 04:54 am SW 7.0 8.9------------
2024-02-25 04:48 am SW 8.0 8.9----30.07-- 61.2----
2024-02-25 04:42 am SW 8.0 8.9----30.07- 63.0 61.2----
2024-02-25 04:36 am SW 8.0 8.9----30.07- 63.0 61.2----
2024-02-25 04:30 am SW 8.0 9.9----30.07- 63.0 61.2----
2024-02-25 04:24 am SW 8.9 9.9----30.07- 63.1 61.2----
2024-02-25 04:18 am SW 8.0 8.9----30.07- 63.1 61.2----
2024-02-25 04:12 amWSW 8.0 9.9----30.07- 63.0 61.2----
2024-02-25 04:06 am SW 6.0 8.9----30.07- 62.8 61.2----
2024-02-25 04:00 am SW 6.0 8.0----30.06-0.04 62.6 61.2----
2024-02-25 03:54 am SW 7.0 8.9----30.06- 63.0 61.2----
2024-02-25 03:48 am SW 8.9 9.9----30.06- 63.1-----
2024-02-25 03:42 am SW 8.9 9.9----30.06- 63.1-----
2024-02-25 03:36 am SW 8.9 9.9----30.07- 63.0-----
2024-02-25 03:30 am SW 8.9 11.1----30.07- 63.1 61.2----
2024-02-25 03:24 am SW 8.9 11.1----30.07- 63.1 61.2----
2024-02-25 03:18 am SW 9.9 11.1----30.07- 63.3 61.2----
2024-02-25 03:12 am SW 9.9 9.9----30.07- 63.3 61.3----
2024-02-25 03:06 am SW 8.9 9.9----30.07- 63.1 61.3----
2024-02-25 03:00 amWSW 8.9 9.9----30.07-0.03- 61.3----
2024-02-25 02:54 amWSW 8.9 9.9----30.07-- 61.3----
2024-02-25 02:48 amWSW 8.9 9.9----30.08- 63.1 61.3----
2024-02-25 02:42 amWSW 8.0 8.9----30.08- 62.8 61.3----
2024-02-25 02:36 amWSW 8.0 8.9----30.08- 62.8 61.3----
2024-02-25 02:30 am SW 8.9 8.9----30.08- 63.0 61.3----
2024-02-25 02:24 am SW 8.0 8.9----30.08- 63.0 61.3----
2024-02-25 02:18 amWSW 8.9 9.9----30.08- 63.0 61.3----
2024-02-25 02:12 amWSW 8.9 8.9----30.08- 63.0 61.3----
2024-02-25 02:06 amWSW 8.0 8.9----30.09- 63.0 61.3----
2024-02-25 02:00 amWSW 8.0 8.9----30.09-0.03 63.1 61.3----
2024-02-25 01:54 amWSW 8.0 8.0----30.09- 63.0 61.3----
2024-02-25 01:48 amWSW 8.0 8.0----30.09- 63.1 61.3----
2024-02-25 01:42 amWSW 7.0 8.0----30.09- 63.1 61.3----
2024-02-25 01:36 amWSW 7.0 8.0----30.10- 63.1 61.3----
2024-02-25 01:30 amWSW 7.0 8.0----30.10- 63.0 61.3----
2024-02-25 01:24 amWSW 8.0 8.9----30.10- 63.0 61.3----
2024-02-25 01:18 amWSW 8.0 8.9----30.10-- 61.3----
2024-02-25 01:12 amWSW 8.0 8.0----30.10- 63.1 61.3----
2024-02-25 01:06 amWSW 7.0 8.0----30.10- 63.0 61.3----
2024-02-25 01:00 am SW 7.0 8.0----30.10-0.02 63.0 61.3----
2024-02-25 12:54 amWSW 6.0 8.0----30.10- 63.0 61.3----
2024-02-25 12:48 amWSW 7.0 8.0----30.10-- 61.3----
2024-02-25 12:42 amWSW 7.0 8.0----30.10- 63.0 61.5----
2024-02-25 12:36 amWSW 6.0 7.0----30.10- 62.6 61.5----
2024-02-25 12:30 amWSW 7.0 8.0----30.10- 62.4 61.5----
2024-02-25 12:24 amWSW 8.0 8.9----30.10- 62.6 61.5----
2024-02-25 12:18 amWSW 8.9 9.9----30.10- 62.8 61.5----
2024-02-25 12:12 amWSW 9.9 9.9----30.10- 63.1 61.5----
2024-02-25 12:06 am SW 7.0 9.9----30.10- 63.3 61.5----
2024-02-25 12:00 am SW 7.0 8.9----30.11-0.01 62.8-----
2024-02-24 11:54 pm SW 8.0 8.9----30.11- 63.3-----
2024-02-24 11:48 pmWSW 8.0 9.9----30.11- 63.3 61.5----
2024-02-24 11:42 pmWSW 8.9 9.9----30.11- 63.1 61.5----
2024-02-24 11:36 pmWSW 8.9 9.9----30.11- 63.5 61.5----
2024-02-24 11:30 pmWSW 8.0 11.1----30.11- 63.7 61.5----
2024-02-24 11:24 pmWSW 8.9 11.1----30.11- 63.9 61.7----
2024-02-24 11:18 pmWSW 8.9 9.9----30.11- 63.5 61.7----
2024-02-24 11:12 pmWSW 8.9 9.9----30.11- 63.9 61.7----
2024-02-24 11:06 pmWSW 8.0 8.9----30.11- 63.7 61.7----
2024-02-24 11:00 pmWSW 8.0 9.9----30.11+0.00 63.7 61.7----
2024-02-24 10:54 pmWSW 8.9 9.9----30.11- 63.7 61.7----
2024-02-24 10:48 pmWSW 8.9 12.0----30.11-- 61.7----
2024-02-24 10:42 pmWSW 11.1 13.0----30.11-- 61.7----
2024-02-24 10:36 pmWSW 9.9 12.0----30.11-- 61.7----
2024-02-24 10:30 pmWSW 11.1 12.0----30.11- 64.4 61.7----
2024-02-24 10:24 pmWSW 11.1 12.0----30.11- 64.4 61.7----
2024-02-24 10:18 pmWSW 9.9 12.0----30.11- 63.9 61.9----
2024-02-24 10:12 pmWSW 9.9 12.0----30.11- 64.2 61.9----
2024-02-24 10:06 pmWSW 9.9 12.0----30.11- 64.2 61.9----
2024-02-24 10:00 pmWSW 8.9 11.1----30.12+0.02 64.0 61.9----
2024-02-24 09:54 pmWSW 9.9 12.0----30.12- 64.0 61.9----
2024-02-24 09:48 pmWSW 9.9 12.0----30.12- 63.9 61.9----
2024-02-24 09:42 pmWSW 9.9 13.0----30.12- 64.0 61.9----
2024-02-24 09:36 pmWSW 9.9 12.0----30.12- 64.0 61.9----
2024-02-24 09:30 pmWSW 8.9 12.0----30.12- 64.2 62.1----
2024-02-24 09:24 pmWSW 11.1 13.0----30.11- 64.4 62.1----
2024-02-24 09:18 pmWSW 12.0 14.0------ 64.8-----
2024-02-24 09:12 pmWSW 12.0 13.0------ 64.2-----
2024-02-24 09:06 pmWSW 12.0 14.0------ 64.2-----
2024-02-24 09:00 pmWSW 12.0 14.0----30.12+0.03 64.6 62.1----
2024-02-24 08:54 pmWSW 12.0 13.0----30.11- 64.6 62.1----
2024-02-24 08:48 pmWSW 11.1 14.0----30.11- 64.2 62.1----
2024-02-24 08:42 pmWSW 13.0 15.0----30.11- 64.4 62.1----
2024-02-24 08:36 pmWSW 13.0 15.0----30.11- 64.6 62.2----
2024-02-24 08:30 pmWSW 12.0 14.0----30.11- 64.8 62.2----
2024-02-24 08:24 pmWSW 12.0 15.0----30.11- 64.8 62.2----
2024-02-24 08:18 pmWSW 12.0 13.0----30.11-- 62.2----
2024-02-24 08:12 pmWSW 12.0 14.0----30.11-- 62.2----
2024-02-24 08:06 pmWSW 12.0 14.0----30.11-- 62.2----
2024-02-24 08:00 pm-------30.11+0.01- 62.4----
2024-02-24 07:54 pm-------30.11-- 62.4----
2024-02-24 07:48 pmWSW 12.0 14.0----30.11-- 62.4----
2024-02-24 07:42 pmWSW 11.1 13.0----30.11-- 62.4----
2024-02-24 07:36 pmWSW 12.0 14.0----30.11-- 62.4----
2024-02-24 07:30 pmWSW 12.0 13.0----30.10- 64.2 62.4----
2024-02-24 07:24 pmWSW 12.0 14.0----30.10- 64.2 62.4----
2024-02-24 07:18 pmWSW 12.0 14.0----30.10- 64.4 62.6----
2024-02-24 07:12 pmWSW 12.0 13.0----30.10- 64.4 62.6----
2024-02-24 07:06 pmWSW 12.0 15.9----30.10- 64.4 62.6----
2024-02-24 07:00 pmWSW 15.0 17.1----30.10+0.00- 62.6----
2024-02-24 06:54 pmWSW 15.0 15.9----30.10-- 62.6----
2024-02-24 06:48 pm SW 13.0 15.9----30.10-- 62.6----
2024-02-24 06:42 pm SW 13.0 15.9----30.10-- 62.8----
2024-02-24 06:36 pmWSW 13.0 15.9----30.09-- 62.8----
2024-02-24 06:30 pmWSW 13.0 15.0----30.09-- 62.8----
2024-02-24 06:24 pm SW 13.0 15.0----30.09-- 62.8----
2024-02-24 06:18 pm SW 12.0 13.0----30.09- 64.8-----
2024-02-24 06:12 pm SW 11.1 14.0----30.09- 64.9-----
2024-02-24 06:06 pm SW 11.1 13.0----30.09- 65.3-----
2024-02-24 06:00 pm SW 12.0 13.0----30.09-0.02 64.9-----
2024-02-24 05:54 pm SW 12.0 13.0----30.09- 65.1-----
2024-02-24 05:48 pm SW 12.0 13.0----30.09- 64.9 63.1----
2024-02-24 05:42 pm SW 12.0 13.0----30.09- 65.3 63.1----
2024-02-24 05:36 pm SW 12.0 14.0----30.09- 65.1 63.1----
2024-02-24 05:30 pm SW 12.0 14.0----30.09-- 63.3----
2024-02-24 05:24 pm SW 12.0 15.0----30.09-- 63.3----
2024-02-24 05:18 pm SW 13.0 14.0----30.09- 65.3 63.3----
2024-02-24 05:12 pm SW 13.0 15.0----30.09- 65.7 63.5----
2024-02-24 05:06 pm SW 12.0 15.0----30.10- 65.7 63.5----
2024-02-24 05:00 pm SW 13.0 15.9----30.10-0.02 66.2 63.5----
2024-02-24 04:54 pm SW 13.0 15.9----30.10- 66.4 63.5----
2024-02-24 04:48 pm SW 12.0 15.0----30.10- 66.4 63.5----
2024-02-24 04:42 pm SW 14.0 15.0----30.10- 66.7 63.5----
2024-02-24 04:36 pm SW 13.0 14.0----30.10- 66.9 63.7----
2024-02-24 04:30 pm SW 14.0 15.0----30.10- 66.6 63.7----
2024-02-24 04:24 pm SW 14.0 15.0----30.10- 66.7 63.7----
2024-02-24 04:18 pm SW 14.0 15.9----30.10-- 63.7----
2024-02-24 04:12 pm SW 14.0 15.9----30.10-- 63.7----
2024-02-24 04:06 pm SW 13.0 14.0----30.10-- 63.7----
2024-02-24 04:00 pm SW 14.0 15.9----30.10-0.04------
2024-02-24 03:54 pm SW 14.0 15.9----30.10-------
2024-02-24 03:48 pm SW 14.0 15.0----30.10- 66.0-----
2024-02-24 03:42 pm SW 13.0 15.0----30.10- 66.0-----
2024-02-24 03:36 pm SW 12.0 15.0----30.10- 65.8-----
2024-02-24 03:30 pmSSW 12.0 14.0----30.10- 66.2 63.5----
2024-02-24 03:24 pmSSW 11.1 13.0----30.10- 66.4 63.5----
2024-02-24 03:18 pmSSW 11.1 14.0----30.10- 66.2 63.5----
2024-02-24 03:12 pmSSW 11.1 14.0----30.11- 66.0 63.5----
2024-02-24 03:06 pmSSW 11.1 14.0----30.11- 65.8 63.5----
2024-02-24 03:00 pm-------30.11-0.06 65.8 63.5----
2024-02-24 02:54 pm-------30.11- 65.7 63.5----
2024-02-24 02:48 pmSSW 8.9 11.1----30.11-- 63.3----
2024-02-24 02:42 pmSSW 9.9 11.1----30.11-- 63.3----
2024-02-24 02:36 pmSSW 9.9 11.1----30.11-- 63.3----
2024-02-24 02:30 pmSSW 8.9 8.9------ 65.8 63.3----
2024-02-24 02:24 pmSSW 8.0 9.9------ 65.1 63.3----
2024-02-24 02:18 pm-------30.11- 65.3 63.3----
2024-02-24 02:12 pm-------30.11- 65.3 63.1----
2024-02-24 02:06 pm-------30.12- 65.1 63.1----
2024-02-24 02:00 pm S 8.0 8.9----30.12-0.06 65.3 63.1----
2024-02-24 01:54 pm S 8.0 8.0----30.12- 65.1 63.0----
2024-02-24 01:48 pmSSW 8.0 8.0----30.12- 65.7 63.0----
2024-02-24 01:42 pm S 7.0 8.0----30.12- 64.8 62.8----
2024-02-24 01:36 pmSSW 7.0 8.0----30.12- 65.3 62.8----
2024-02-24 01:30 pm S 8.0 8.9----30.12- 64.8-----
2024-02-24 01:24 pm S 8.0 8.9----30.13- 64.8-----
2024-02-24 01:18 pm S 8.0 8.0----30.13- 65.1 62.1----
2024-02-24 01:12 pmSSW 8.0 8.9----30.13- 65.7 62.1----
2024-02-24 01:06 pmSSW 8.0 8.9----30.13- 66.4 61.9----
2024-02-24 01:00 pmSSW 8.0 8.9----30.14-0.04- 61.9----
2024-02-24 12:54 pmSSW 8.0 8.9----30.14-- 61.7----
2024-02-24 12:48 pmSSW 8.9 9.9----30.15- 66.6 61.7----
2024-02-24 12:42 pmSSW 8.9 9.9----30.15- 66.6 61.5----
2024-02-24 12:36 pmSSW 8.0 9.9----30.15- 66.0 61.5----
2024-02-24 12:30 pmSSW 8.0 8.9----30.16- 65.5 61.3----
2024-02-24 12:24 pm S 8.9 8.9----30.16- 65.5 61.3----
2024-02-24 12:18 pmSSW 8.9 8.9----30.16- 65.8 61.2----
2024-02-24 12:12 pm S 8.0 8.9----30.16- 65.5 61.2----
2024-02-24 12:06 pmSSW 7.0 8.0----30.16- 65.8 61.0----
2024-02-24 12:00 pmSSW 6.0 7.0----30.17-- 61.0----
2024-02-24 11:54 amSSW 6.0 6.0----30.17-- 61.0----
2024-02-24 11:48 amSSW 5.1 6.0----30.17-- 60.8----
2024-02-24 11:42 amSSW 6.0 6.0----30.17-- 60.8----
2024-02-24 11:36 amSSW 5.1 6.0----30.17-- 60.8----
2024-02-24 11:30 amSSW 5.1 6.0----30.18- 67.5 60.8----
2024-02-24 11:24 amSSW 4.1 5.1----30.18- 66.7 60.8----
2024-02-24 11:18 am S 2.9 4.1----30.18- 67.1 60.6----
2024-02-24 11:12 am S 2.9 2.9----30.18- 67.1 60.6----
2024-02-24 11:06 amSSW 2.9 2.9----30.18- 66.6 60.6----
2024-02-24 11:00 amWSW 2.9 2.9----30.18+0.03 66.0 60.6----
2024-02-24 10:54 am W 2.9 2.9----30.18- 67.6 60.6----
2024-02-24 10:48 am W 2.9 2.9----30.18-- 60.6----
2024-02-24 10:42 am W 4.1 4.1----30.18-- 60.4----
2024-02-24 10:36 am W 4.1 4.1----30.18-- 60.4----
2024-02-24 10:30 am W 4.1 4.1----30.18-- 60.4----
2024-02-24 10:24 am W 2.9 4.1----30.18-- 60.4----
2024-02-24 10:18 am W 4.1 4.1------ 65.8 60.4----
2024-02-24 10:12 am W 2.9 4.1------ 65.5 60.4----
2024-02-24 10:06 am W 4.1 4.1------ 64.0 60.4----
2024-02-24 10:00 am W 2.9 2.9----30.18-- 60.4----
2024-02-24 09:54 am W 2.9 4.1----30.18-- 60.4----
2024-02-24 09:48 am W 2.9 4.1----30.17-- 60.4----
2024-02-24 09:42 amWSW 4.1 4.1----30.18-- 60.4----
2024-02-24 09:36 am W 4.1 4.1----30.18-- 60.3----
2024-02-24 09:30 am W 4.1 4.1----30.17- 64.2 60.3----
2024-02-24 09:24 am W 4.1 4.1----30.17- 63.5 60.3----
2024-02-24 09:18 amWSW 4.1 4.1----30.17- 62.8 60.3----
2024-02-24 09:12 amWSW 4.1 4.1----30.17- 61.7 60.3----
2024-02-24 09:06 am W 2.9 2.9----30.17- 62.1 60.3----
2024-02-24 09:00 am W 1.0 1.9------------
2024-02-24 08:54 amWNW 1.9 1.9------------
2024-02-24 08:48 amWNW 1.9 1.9----30.17-- 60.3----
2024-02-24 08:42 amWNW 1.0 1.9----30.17-- 60.3----
2024-02-24 08:36 amWNW 1.9 1.9----30.16-- 60.3----
2024-02-24 08:30 am NW 1.9 2.9----30.16- 62.4 60.3----
2024-02-24 08:24 am NW 2.9 2.9----30.16- 61.7 60.3----
2024-02-24 08:18 am NW 2.9 4.1----30.15- 61.7 60.3----
2024-02-24 08:12 am NW 4.1 4.1----30.15- 61.7 60.3----
2024-02-24 08:06 amWNW 4.1 4.1----30.15- 61.9 60.4----
2024-02-24 08:00 amWNW 4.1 4.1----30.15+0.05 62.1 60.4----
2024-02-24 07:54 amWNW 4.1 4.1----30.15- 62.4 60.4----
2024-02-24 07:48 amWNW 4.1 4.1------- 60.4----
2024-02-24 07:42 amWNW 4.1 4.1------- 60.4----
2024-02-24 07:36 amWNW 4.1 4.1------- 60.4----
2024-02-24 07:30 amWNW 2.9 4.1----30.14-------
2024-02-24 07:24 amWNW 2.9 4.1----30.14-------
2024-02-24 07:18 amWNW 2.9 4.1----30.14-------
2024-02-24 07:12 amWNW 4.1 5.1----30.14-------
2024-02-24 07:06 amWNW 4.1 4.1----30.13-------
2024-02-24 07:00 am--------- 60.1 60.4----
2024-02-24 06:54 am--------- 59.9 60.4----
2024-02-24 06:48 amWNW 4.1 4.1----30.13- 59.9 60.4----
2024-02-24 06:42 amWNW 4.1 4.1----30.13- 59.9 60.4----
2024-02-24 06:36 amWNW 4.1 4.1----30.12- 60.3 60.4----
2024-02-24 06:30 amWNW 4.1 4.1----30.12-------
2024-02-24 06:24 amWNW 4.1 5.1----30.12-------
2024-02-24 06:18 amWNW 5.1 5.1----30.12-- 60.4----
2024-02-24 06:12 amWNW 5.1 5.1----30.11-- 60.4----
2024-02-24 06:06 am NW 5.1 5.1----30.11-- 60.6----
2024-02-24 06:00 am NW 4.1 4.1----30.11+0.04 60.6 60.6----
2024-02-24 05:54 amWNW 4.1 4.1----30.11- 60.3 60.6----